Location: Firdgum
(53.2488°N, 5.5615°E)
Time: 03:40:16
(UTC+00:00)

Okean O Rocket - Pass Details

Date: 08 December 2019
Orbit: 624 x 644 km, 98.2° (Epoch: 20 January)

Event Time Altitude Azimuth Distance (km) Brightness Sun altitude
Rises 06:44:44 0° 6° (N) 2,929 4.8 -7.5°
Reaches altitude 10° 06:47:16 10° 353° (N) 2,019 3.9 -7.2°
Maximum altitude 06:50:43 23° 301° (WNW) 1,345 2.7 -6.7°
Drops below altitude 10° 06:54:10 10° 249° (WSW) 2,017 3.8 -6.3°
Sets 06:56:42 0° 235° (SW) 2,925 4.8 -6.0°
